Location: Ecklingerode
(51.5036°N, 10.3122°E)
Time: 06:13:07
(UTC+00:00)

Cosmos 2297 Rocket - Pass Details

Date: 29 October 2020
Orbit: 838 x 844 km, 71.0° (Epoch: 01 December)

Event Time Altitude Azimuth Distance (km) Brightness Sun altitude
Rises 17:29:55 0° 326° (NNW) 3,416 5.8 -15.0°
Reaches altitude 10° 17:32:26 10° 321° (NW) 2,476 5.1 -15.4°
Maximum altitude 17:37:51 47° 249° (WSW) 1,105 3.3 -16.2°
Drops below altitude 10° 17:43:14 10° 177° (S) 2,459 4.6 -17.1°
Sets 17:45:44 0° 172° (S) 3,389 5.3 -17.5°
